Rochester, Indiana, United States (46975)
Lat: 41.06N, Lon: 86.22W
Wx Zone: INZ015
Local Info
Past Weather Observations for Today

NOTE: This archive is for the closest National Weather Service station to Rochester. Information may differ from the station used for current weather conditions.

Click here for Long-term Archive

Time Weather Temperature Dewpoint Humidity Pressure Winds Precip Visibility
12:55
Overcast
Light Snow
32°F / 0°C 30°F / -1°C 93% 29.74 in
(1007 mb)
E 15 mph
(E 24 kph)
- 1 1/2SM
12:35
Overcast
Light Snow
32°F / 0°C 30°F / -1°C 93% 29.74 in
(1007 mb)
E 15 mph
(E 24 kph)
- 1 3/4SM
12:15
Overcast
Light Snow
32°F / 0°C 32°F / 0°C 100% 29.74 in
(1007 mb)
ENE 15 mph
(ENE 24 kph)
- 1 3/4SM
11:55
Overcast
Light Snow
32°F / 0°C 32°F / 0°C 100% 29.74 in
(1007 mb)
ENE 13.8 mph
(ENE 22 kph)
0.02 in
(0.51 mm)
1 1/2SM
11:35
Overcast
Light Snow
32°F / 0°C 32°F / 0°C 100% 29.74 in
(1007 mb)
ENE 15 mph
(ENE 24 kph)
0.01 in
(0.25 mm)
2SM
11:15
Overcast
Light Rain
34°F / 1°C 32°F / 0°C 93% 29.74 in
(1007 mb)
E 12.7 mph
(E 20 kph)
0.01 in
(0.25 mm)
2SM
10:55
Overcast
Rain
34°F / 1°C 32°F / 0°C 93% 29.74 in
(1007 mb)
ENE 16.1 mph
(ENE 26 kph)
- 2SM
10:35
Overcast
Light Rain
34°F / 1°C 34°F / 1°C 100% 29.74 in
(1007 mb)
ENE 13.8 mph
(ENE 22 kph)
- 2SM
10:15
Overcast
Drizzle
34°F / 1°C 34°F / 1°C 100% 29.74 in
(1007 mb)
ENE 10.4 mph
(ENE 17 kph)
- 1 1/2SM
09:55
Overcast
Fog And Mist
36°F / 2°C 34°F / 1°C 93% 29.74 in
(1007 mb)
ENE 11.5 mph
(ENE 19 kph)
- 2SM
09:35
Overcast
Fog And Mist
34°F / 1°C 34°F / 1°C 100% 29.74 in
(1007 mb)
ENE 10.4 mph
(ENE 17 kph)
- 2SM
09:15
Overcast
Fog And Mist
34°F / 1°C 34°F / 1°C 100% 29.71 in
(1006 mb)
ENE 9.2 mph
(ENE 15 kph)
- 2SM
08:55
Overcast
Fog And Mist
34°F / 1°C 34°F / 1°C 100% 29.71 in
(1006 mb)
ENE 6.9 mph
(ENE 11 kph)
- 2SM
08:35
Overcast
Fog And Mist
34°F / 1°C 34°F / 1°C 100% 29.71 in
(1006 mb)
ENE 5.8 mph
(ENE 9 kph)
- 2SM
08:15
Mostly Cloudy
Fog And Mist
34°F / 1°C 34°F / 1°C 100% 29.71 in
(1006 mb)
ENE 4.6 mph
(ENE 7 kph)
- 4SM
07:55
Mostly Cloudy
Fog And Mist
34°F / 1°C 32°F / 0°C 93% 29.71 in
(1006 mb)
ENE 6.9 mph
(ENE 11 kph)
- 3SM
07:35
Overcast
Fog And Mist
34°F / 1°C 32°F / 0°C 93% 29.71 in
(1006 mb)
E 4.6 mph
(E 7 kph)
- 3SM
07:15
Overcast
Fog And Mist
32°F / 0°C 32°F / 0°C 100% 29.71 in
(1006 mb)
Calm - 3SM
06:55
Overcast
Fog And Mist
34°F / 1°C 32°F / 0°C 93% 29.68 in
(1005 mb)
NE 4.6 mph
(NE 7 kph)
- 3SM
06:35
Overcast
Fog And Mist
32°F / 0°C 32°F / 0°C 100% 29.68 in
(1005 mb)
Calm - 2 1/2SM
06:15
Overcast
Fog And Mist
32°F / 0°C 32°F / 0°C 100% 29.68 in
(1005 mb)
Calm - 2 1/2SM
05:55
Overcast
Fog And Mist
32°F / 0°C 32°F / 0°C 100% 29.68 in
(1005 mb)
Calm - 2 1/2SM
05:35
Mostly Cloudy
Fog And Mist
32°F / 0°C 32°F / 0°C 100% 29.68 in
(1005 mb)
Calm - 2SM
05:15
Clear
Fog And Mist
32°F / 0°C 32°F / 0°C 100% 29.68 in
(1005 mb)
Calm - 2SM
04:55
Clear
Fog And Mist
32°F / 0°C 32°F / 0°C 100% 29.68 in
(1005 mb)
Calm - 2SM
04:35
Clear
Fog And Mist
32°F / 0°C 32°F / 0°C 100% 29.68 in
(1005 mb)
Calm - 3SM
04:15
Partly Cloudy
Fog And Mist
32°F / 0°C 32°F / 0°C 100% 29.68 in
(1005 mb)
Calm - 3SM
03:55
Overcast
Fog And Mist
32°F / 0°C 32°F / 0°C 100% 29.68 in
(1005 mb)
Calm - 3SM
03:35
Overcast
Fog And Mist
34°F / 1°C 32°F / 0°C 93% 29.68 in
(1005 mb)
Calm - 4SM
03:15
Overcast
Fog And Mist
34°F / 1°C 32°F / 0°C 93% 29.68 in
(1005 mb)
Calm - 5SM
02:55
Overcast
Fog And Mist
34°F / 1°C 34°F / 1°C 100% 29.68 in
(1005 mb)
Calm - 5SM
02:35
Mostly Cloudy
Fog And Mist
34°F / 1°C 34°F / 1°C 100% 29.68 in
(1005 mb)
Calm - 5SM
02:15
Partly Cloudy
Fog And Mist
34°F / 1°C 32°F / 0°C 93% 29.68 in
(1005 mb)
Calm - 5SM
01:55
Partly Cloudy
Fog And Mist
34°F / 1°C 34°F / 1°C 100% 29.68 in
(1005 mb)
Calm - 5SM
01:35
Mostly Cloudy
34°F / 1°C 34°F / 1°C 100% 29.68 in
(1005 mb)
Calm - 7SM
01:15
Overcast
36°F / 2°C 34°F / 1°C 93% 29.68 in
(1005 mb)
Calm - 7SM
00:55
Overcast
36°F / 2°C 34°F / 1°C 93% 29.68 in
(1005 mb)
Calm - 7SM
00:35
Overcast
36°F / 2°C 34°F / 1°C 93% 29.68 in
(1005 mb)
SSW 3.5 mph
(SSW 6 kph)
- 7SM
00:15
Overcast
36°F / 2°C 34°F / 1°C 93% 29.68 in
(1005 mb)
SW 3.5 mph
(SW 6 kph)
- 7SM
Time Weather Temperature Dewpoint Humidity Pressure Winds Precip Visibility


Weather for websites

WeatherForYou.com, LLC is not responsible for any damages or problems caused by this service. Current weather conditions are obtained from the closest station including government and personal stations which may have varying degrees of accuracy. Weather forecasts are derived from the NOAA NDFD. Like all things, this site belongs to Jesus Christ... He just trusts me to maintain it. If you have any questions or comments email webmaster@weatherforyou.com

Copyright © 2015, WeatherForYou.com LLC. All rights reserved.